Location: Cadisotto
(44.9833°N, 10.7333°E)
Time: 09:23:48
(UTC+00:00)

Daily predictions for brighter satellites

Satellite Brightness Start Highest point End
(mag) Time Altitude Azimuth Time Altitude Azimuth Time Altitude Azimuth
NOSS 2-1 (D) 3.8 18:06:25 10° SW 18:09:44 54° NW 18:13:20 10° NNE
STARLINK-1212 2.8 18:06:49 10° SW 18:09:56 74° SE 18:13:04 10° ENE
COSMOS 2428 4.0 18:04:28 10° SW 18:09:57 46° WNW 18:15:29 10° NNE
STARLINK-1105 2.8 18:07:16 10° SW 18:10:23 74° SE 18:13:31 10° ENE
STARLINK-1239 3.9 18:06:42 10° SSW 18:10:33 46° SE 18:14:24 10° ENE
STARLINK-1206 2.8 18:07:45 10° SW 18:10:51 75° SE 18:13:58 10° ENE
ISS -2.0 18:08:18 10° WNW 18:11:09 25° N 18:14:00 10° ENE
STARLINK-1126 4.1 18:07:19 10° NW 18:11:14 46° NNE 18:15:08 10° E
STARLINK-1247 2.8 18:08:12 10° SW 18:11:18 76° SE 18:14:25 10° ENE
SJ-6B 4.1 18:08:14 10° ESE 18:11:31 24° ENE 18:14:52 10° NNE
Cosmos 2369 Rocket 4.0 18:08:13 10° N 18:11:36 16° NE 18:14:57 10° ENE
STARLINK-1227 2.8 18:08:37 10° SW 18:11:43 77° SE 18:14:52 10° ENE
STARLINK-1218 2.8 18:09:06 10° SW 18:12:12 77° SE 18:15:19 10° ENE
CZ-2C R/B 3.6 18:07:57 10° SE 18:12:32 36° ENE 18:16:58 10° N
STARLINK-1226 2.8 18:09:33 10° SW 18:12:40 78° SE 18:15:47 10° ENE
STARLINK-1254 2.8 18:09:57 10° SW 18:13:04 79° SE 18:16:13 10° ENE
Cosmos 304 Rocket 4.1 18:08:25 10° N 18:13:05 48° ENE 18:17:42 10° SE
STARLINK-1215 2.8 18:10:27 10° SW 18:13:34 79° SE 18:16:41 10° ENE
STARLINK-1231 2.8 18:10:54 10° SW 18:13:59 80° SE 18:17:07 10° ENE
Cosmos 1048 Rocket 4.0 18:09:30 10° SSW 18:14:38 88° ESE 18:19:51 10° NNE
STARLINK-1232 2.8 18:11:48 10° SW 18:14:54 82° SE 18:18:02 10° ENE
STARLINK-1240 3.8 18:11:14 10° SW 18:15:07 50° SE 18:19:02 10° ENE
STARLINK-1217 2.8 18:12:15 10° SW 18:15:21 82° SE 18:18:29 10° ENE
STARLINK-1208 2.8 18:12:40 10° SW 18:15:47 83° SSE 18:18:57 10° ENE
STARLINK-1082 4.1 18:11:52 10° NW 18:15:48 48° NNE 18:19:44 10° E
STARLINK-1229 2.8 18:13:08 10° SW 18:16:14 84° SSE 18:19:22 10° ENE
STARLINK-1271 2.8 18:13:36 10° SW 18:16:42 85° SSE 18:19:50 10° ENE
Meteor 1-22 Rocket 4.3 18:11:40 10° SSE 18:16:44 47° E 18:21:47 10° NNE
STARLINK-1270 2.8 18:14:03 10° SW 18:17:10 85° SE 18:20:17 10° ENE
STARLINK-1154 2.8 18:14:29 10° SW 18:17:36 86° SE 18:20:44 10° ENE
Resurs 01 Rocket 3.6 18:16:17 10° E 18:18:09 13° ENE 18:20:01 10° NE
STARLINK-1197 2.8 18:15:24 10° SW 18:18:30 88° SE 18:21:38 10° ENE
Cosmos 1939 Rocket 4.1 18:14:45 10° S 18:18:35 46° W 18:22:24 10° NNW
STARLINK-1189 2.8 18:15:51 10° SW 18:18:57 88° SSE 18:22:05 10° ENE
STARLINK-1216 3.7 18:15:49 10° SW 18:19:43 55° SE 18:23:40 10° ENE
STARLINK-1187 3.0 18:16:41 10° WSW 18:19:48 81° NW 18:22:57 10° NE
STARLINK-1188 2.8 18:16:45 10° SW 18:19:51 90° S 18:22:59 10° ENE
STARLINK-1198 2.8 18:16:59 10° SW 18:20:06 90° NNE 18:23:14 10° ENE
STARLINK-1100 4.0 18:16:25 10° NW 18:20:23 51° NNE 18:24:11 11° ESE
STARLINK-1235 3.1 18:17:23 10° WSW 18:20:31 71° NNW 18:23:40 10° NE
Cosmos 494 Rocket 4.0 18:15:57 10° S 18:20:59 59° ESE 18:26:05 10° NNE
Abrixas rocket 4.2 18:20:50 10° SSE 18:21:45 11° SE 18:22:34 10° ESE
STARLINK-1199 2.9 18:18:40 10° WSW 18:21:48 87° NW 18:24:58 10° ENE
Cosmos 1733 3.4 18:18:22 10° SSE 18:22:00 48° E 18:25:39 10° NNE
Cosmos 371 Rocket 3.7 18:17:18 10° NNW 18:22:06 67° WSW 18:26:52 10° S
STARLINK-1191 2.9 18:19:08 10° WSW 18:22:16 86° NW 18:25:25 10° ENE
CZ-4C R/B 4.4 18:18:08 10° WNW 18:22:28 23° NNW 18:27:25 10° NNE
STARLINK-1210 2.9 18:19:35 10° WSW 18:22:42 86° NNW 18:25:51 10° ENE
STARLINK-1221 2.9 18:20:02 10° WSW 18:23:10 85° NNW 18:26:20 10° ENE
USA 81 4.0 18:18:00 10° N 18:23:17 68° E 18:28:31 10° SSE
STARLINK-1219 2.9 18:20:29 10° WSW 18:23:37 84° NW 18:26:47 10° ENE
STARLINK-1222 2.9 18:20:56 10° WSW 18:24:03 84° NW 18:27:13 10° NE
STARLINK-67 3.7 18:21:38 10° W 18:24:05 39° NNW 18:26:34 10° NE
STARLINK-1237 3.6 18:20:25 10° SW 18:24:22 60° SE 18:28:20 10° ENE
FREGAT/IRIS 3.1 18:22:00 10° SE 18:24:28 32° ENE 18:26:58 10° N
STARLINK-1211 2.9 18:21:23 10° WSW 18:24:30 83° NW 18:27:40 10° NE
STARLINK-1214 2.9 18:21:51 10° WSW 18:24:58 82° NNW 18:28:08 10° NE
STARLINK-1083 3.9 18:21:01 10° NW 18:24:59 54° NNE 18:28:36 12° ESE
SPOT 3 Rocket 4.5 18:20:57 10° ESE 18:25:24 29° ENE 18:29:52 10° N
STARLINK-1245 2.9 18:22:20 10° WSW 18:25:27 81° NNW 18:28:35 10° NE
STARLINK-1238 2.9 18:22:46 10° WSW 18:25:53 81° NNW 18:29:01 10° NE
Cosmos 1709 Rocket 4.3 18:20:10 10° N 18:26:08 45° ENE 18:31:58 10° SSE
STARLINK-1205 2.9 18:23:42 10° WSW 18:26:48 79° NNW 18:29:56 10° NE
STARLINK-1204 3.0 18:24:08 10° WSW 18:27:14 79° NW 18:30:22 10° NE
Cosmos 1331 Rocket 4.0 18:22:20 10° NNW 18:27:30 66° ENE 18:32:36 10° SSE
Cosmos 2219 Rocket 4.2 18:23:14 10° WSW 18:28:16 32° NW 18:33:19 10° N
Cosmos 1674 2.9 18:24:58 10° NNW 18:28:44 73° W 18:32:26 10° S
STARLINK-1202 3.5 18:24:59 10° SW 18:28:58 65° SE 18:32:57 10° ENE
STARLINK-1125 3.8 18:25:37 10° NW 18:29:37 57° NNE 18:33:02 14° ESE
Orbus 7S? 3.4 18:27:16 10° WNW 18:30:07 42° SW 18:32:25 10° SSE
SL-14 R/B 3.8 18:26:41 10° N 18:30:33 41° ENE 18:34:22 10° SSE
KORONAS-FOTON 4.0 18:28:02 10° NNW 18:31:53 74° W 18:35:39 10° S
STARLINK-1109 3.8 18:29:54 10° NW 18:33:55 60° NNE 18:37:10 15° ESE
STARLINK-1246 3.5 18:29:55 10° SW 18:33:57 71° SE 18:38:00 10° ENE
MONITOR-E 4.1 18:34:02 10° SSE 18:36:34 44° ENE 18:39:07 10° N
Cosmos 1980 4.3 18:31:57 10° SW 18:37:35 62° WNW 18:43:15 10° NNE
Cosmos 1766 3.5 18:33:42 10° SSW 18:37:41 75° W 18:41:41 10° N
Cosmos 1943 Rocket 3.3 18:33:07 10° N 18:37:45 26° NE 18:41:18 15° E
STARLINK-1091 3.7 18:34:33 10° NW 18:38:36 64° NNE 18:41:39 17° ESE
S3M 4.2 18:33:07 10° S 18:39:29 85° W 18:45:56 10° N
Ariane Rocket 3.0 18:36:01 10° SSE 18:41:06 88° E 18:46:13 10° NNW
STARLINK-1224 3.5 18:38:52 10° SW 18:42:54 82° SE 18:46:56 10° ENE
BREEZE-M DEB (TANK) 3.9 18:32:20 10° WNW 18:44:15 54° SW 18:47:18 12° SSE
Cosmos 1455 Rocket 3.0 18:40:18 10° S 18:44:37 85° E 18:49:00 10° N
STARLINK-1225 3.5 18:43:34 10° SW 18:47:36 88° SSE 18:51:39 10° ENE
Cosmos 1110 Rocket 4.2 18:43:06 10° NNW 18:48:22 75° WSW 18:53:33 10° SSE
STARLINK-1203 3.5 18:45:36 10° WSW 18:49:32 84° NNW 18:53:30 10° ENE
SL-16 R/B 2.2 18:45:24 10° S 18:50:58 63° ESE 18:56:35 10° NNE
STARLINK-1072 3.5 18:47:45 10° NW 18:51:46 78° NNE 18:54:14 22° ESE
Cosmos 1892 Rocket 4.3 18:47:29 10° NNW 18:51:53 58° W 18:56:16 10° S
STARLINK-1230 3.5 18:48:11 10° WSW 18:52:14 87° NNW 18:56:17 10° ENE
Cosmos 1626 Rocket 3.7 18:49:14 10° N 18:53:33 51° ENE 18:57:13 13° SSE
USA 186 1.9 18:50:10 10° SSE 18:53:36 87° WSW 18:57:02 10° NNW
ARGOS Delta rocket 4.3 18:49:34 10° S 18:54:37 73° W 18:59:58 10° NNW
Cosmos 1953 3.4 18:53:53 22° ESE 18:54:39 23° E 18:57:50 10° NE
STARLINK-1234 4.2 18:52:50 10° W 18:55:40 36° NNW 18:58:25 10° NE
STARLINK-1096 3.5 18:52:13 10° WNW 18:56:14 84° NNE 18:58:31 24° ESE
Cosmos 1626 2.0 18:52:44 10° N 18:56:28 79° E 19:00:09 10° SSE
STARLINK-1243 3.6 18:52:53 10° WSW 18:56:56 81° NNW 19:00:53 11° NE
Okean 1-7 Rocket 4.3 18:55:29 10° NNW 18:59:48 55° W 19:04:04 10° S
Aureole 3 4.1 18:57:25 18° SE 18:59:48 35° E 19:04:13 10° NNE
STARLINK-1079 3.5 18:56:41 10° WNW 19:00:42 89° NE 19:02:49 27° ESE
Cosmos 1602 Rocket 3.8 18:56:46 10° N 19:01:06 48° ENE 19:03:54 20° SE
STARLINK-1236 3.7 18:57:33 10° WSW 19:01:36 76° NNW 19:05:23 12° NE
STARLINK-1116 3.5 19:01:09 10° WNW 19:05:10 85° SW 19:07:08 29° SE
ATLAS 2AS CENTAUR R/B 4.3 18:58:51 10° NNW 19:05:11 26° NNE 19:10:15 13° ENE
H-2A R/B 2.4 19:00:08 10° S 19:05:27 70° WSW 19:10:39 10° NNW
DMSP B5D2-2 4.3 19:01:38 10° NNE 19:06:37 43° E 19:11:34 10° S
Aureole 2 Rocket 3.9 19:07:44 10° N 19:10:31 22° ENE 19:10:31 22° ENE
STARLINK-1269 3.9 19:07:00 10° WSW 19:11:01 66° NNW 19:14:25 14° NE
Cosmos 1544 Rocket 4.0 19:07:43 10° SSW 19:12:04 66° W 19:16:30 10° N
STARLINK-1094 3.6 19:10:08 10° WNW 19:14:09 74° SW 19:15:46 34° SE
USA 234 3.2 19:08:30 10° NE 19:15:05 80° SE 19:21:38 10° SW
STARLINK-1073 4.4 19:11:29 10° NW 19:15:26 41° NNE 19:17:06 27° ENE
STARLINK-1200 4.0 19:11:43 10° WSW 19:15:43 62° NNW 19:18:56 15° NE
Cosmos 2297 3.8 19:10:31 10° NNW 19:16:12 76° WSW 19:20:56 15° SSE
CZ-2C R/B 3.7 19:11:28 10° NNE 19:16:14 75° ESE 19:20:56 10° S
STARLINK-1117 3.6 19:14:39 10° WNW 19:18:40 69° SW 19:20:07 37° SE
STARLINK-1192 4.1 19:16:23 10° WSW 19:20:23 58° NNW 19:23:24 17° NE
Cosmos 1825 Rocket 4.4 19:16:30 10° N 19:20:26 30° ENE 19:20:41 30° E
STARLINK-1121 4.4 19:16:28 10° NW 19:20:27 43° NNE 19:21:53 31° ENE
Cosmos 2237 Rocket 4.0 19:16:32 10° WSW 19:21:33 32° NW 19:26:37 10° N
STARLINK-1078 3.7 19:19:10 10° WNW 19:23:09 64° SW 19:24:26 39° SSE
STARLINK-1244 4.2 19:21:12 10° WSW 19:25:12 55° NNW 19:28:01 18° NE
STARLINK-1106 4.3 19:21:26 10° NW 19:25:25 45° NNE 19:26:39 34° ENE
Cosmos 1302 Rocket 4.1 19:20:39 10° NNW 19:25:55 74° WSW 19:29:43 19° S
STARLINK-1108 3.8 19:23:42 10° WNW 19:27:40 59° SW 19:28:47 41° SSE
CZ-2C R/B 2.5 19:23:11 10° NNE 19:28:18 57° E 19:32:38 14° S
Cosmos 1992 Rocket 4.3 19:24:02 10° N 19:29:06 48° ENE 19:30:33 38° ESE
Cosmos 2184 Rocket 4.1 19:23:08 10° N 19:29:21 54° ENE 19:32:14 31° SE
Cosmos 1758 Rocket 3.8 19:25:35 10° N 19:29:47 44° ENE 19:30:09 42° E
STARLINK-1138 4.3 19:25:56 10° WSW 19:29:53 52° NNW 19:32:32 20° NE
STARLINK-1112 4.2 19:26:25 10° NW 19:30:28 47° NNE 19:31:27 38° ENE
STARLINK-1066 4.4 19:29:09 10° WNW 19:31:56 28° SW 19:32:18 27° SSW
STARLINK-1071 3.9 19:28:14 10° WNW 19:32:10 54° SW 19:33:08 42° S
STARLINK-1081 4.4 19:29:37 10° WNW 19:32:22 28° SW 19:32:41 27° SSW
STARLINK-1070 4.4 19:30:05 10° WNW 19:32:48 27° SW 19:33:06 27° SSW
STARLINK-1124 4.0 19:29:08 10° WNW 19:33:11 54° SW 19:34:14 41° S
STARLINK-1069 4.4 19:30:30 10° WNW 19:33:14 27° SW 19:33:34 27° SSW
ARGOS 4.1 19:28:25 10° S 19:33:37 48° W 19:38:51 10° NNW
STARLINK-1085 4.4 19:30:56 10° WNW 19:33:40 27° SW 19:34:00 27° SSW
STARLINK-1086 4.4 19:31:27 10° WNW 19:34:09 27° SW 19:34:25 26° SW
STARLINK-1095 4.5 19:31:54 10° WNW 19:34:35 26° SW 19:34:50 26° SW
STARLINK-1143 4.4 19:30:45 10° W 19:34:41 49° NNW 19:37:08 21° NE
STARLINK-1077 4.5 19:32:21 10° WNW 19:35:01 26° SW 19:35:16 26° SW
Cosmos 2251 Rocket 3.6 19:30:03 10° S 19:35:14 54° ESE 19:40:29 10° NNE
STARLINK-1128 4.1 19:31:25 10° NW 19:35:28 50° NNE 19:36:15 43° ENE
STARLINK-1075 4.5 19:32:49 10° WNW 19:35:29 26° SW 19:35:42 26° SW
SL-8 R/B 4.1 19:31:35 10° WNW 19:36:18 58° N 19:38:02 36° ENE
STARLINK-1110 4.1 19:32:46 10° WNW 19:36:41 50° SW 19:37:29 42° S
SL-24 R/B 4.2 19:33:29 10° N 19:38:08 73° WNW 19:42:11 10° SSW
STARLINK-1113 3.9 19:36:23 10° NW 19:40:28 53° NNE 19:41:02 48° ENE
Cosmos 1470 3.8 19:37:16 10° SSW 19:40:59 46° WNW 19:44:46 10° N
Cosmos 1606 Rocket 4.4 19:43:16 34° NE 19:43:16 34° NE 19:46:17 10° NNE
STARLINK-1119 3.8 19:41:21 10° NW 19:45:26 56° NNE 19:45:48 54° NE
STARLINK-1122 4.3 19:41:58 10° WNW 19:45:48 42° SW 19:46:17 40° SSW
MetOp-A 4.4 19:42:29 19° S 19:46:20 65° WSW 19:51:41 10° NNW
Resurs 1-3 3.9 19:44:44 32° S 19:46:39 66° WSW 19:51:03 10° NNW
ERS-1 Rocket 4.2 19:48:48 26° ENE 19:48:48 26° ENE 19:52:32 10° N
ISS -2.7 19:45:19 10° NW 19:48:11 39° N 19:48:11 39° N
Cosmos 2154 Rocket 4.2 19:44:04 10° N 19:50:15 50° ENE 19:51:33 44° ESE
STARLINK-1126 4.4 19:46:38 10° WNW 19:50:25 39° SW 19:50:44 38° SSW
USA 245 4.3 19:50:07 46° E 19:50:27 46° ENE 19:55:52 10° N
STARLINK-1114 3.8 19:46:20 10° NW 19:50:27 60° NNE 19:50:36 60° NE
BREEZE-M DEB (TANK) 3.7 19:47:37 10° WNW 19:53:06 54° N 19:53:10 54° NNE
BREEZE M DEB (TANK) 3.8 19:43:44 10° SW 19:53:40 51° SSE 19:53:49 51° SSE
Resurs 01 Rocket 1.6 19:53:05 55° S 19:54:00 79° WSW 19:58:26 10° NNW
SPOT 5 4.5 19:56:05 19° NE 19:56:05 19° NE 19:58:08 10° NNE
STARLINK-1130 (DARKSAT) 3.7 19:51:18 10° NW 19:55:22 64° NNE 19:55:22 64° NNE
Cosmos 2369 Rocket 2.1 19:50:56 10° NNW 19:56:40 75° ENE 19:57:50 56° SE
Cosmos 967 Rocket 4.5 19:53:44 10° SSW 20:00:00 57° ESE 20:06:21 10° NE
Cosmos 2263 4.2 19:54:47 10° NNW 20:00:22 59° ENE 20:00:59 55° E
STARLINK-1084 3.8 19:56:16 10° NW 20:00:09 66° N 20:00:09 66° N
STARLINK-1098 3.9 20:01:14 10° NW 20:04:55 65° NNW 20:04:55 65° NNW
Cosmos 1726 3.1 20:06:29 43° N 20:06:29 43° N 20:09:08 10° N
Landsat 7 4.3 20:06:34 46° NE 20:06:34 46° NE 20:10:32 10° N
Nadezhda 1 Rocket 3.9 20:06:17 48° SSE 20:08:07 71° E 20:14:29 10° NNE
Cosmos 2228 3.9 20:11:03 40° NNE 20:11:03 40° NNE 20:13:52 10° NNE
STARLINK-1123 4.0 20:06:14 10° NW 20:09:44 61° NW 20:09:44 61° NW
MOS 1 Rocket 4.1 20:08:08 10° N 20:13:14 57° WNW 20:18:30 10° SSW
STARLINK-1097 4.2 20:11:11 10° WNW 20:14:29 55° NW 20:14:29 55° NW
Cosmos 1943 3.4 20:19:28 57° NE 20:19:28 57° NE 20:24:05 10° NNE
Cosmos 292 Rocket 4.1 20:14:06 10° NNW 20:18:48 57° WSW 20:19:06 55° WSW
STARLINK-1099 4.4 20:16:11 10° WNW 20:19:17 49° WNW 20:19:17 49° WNW
Cosmos 1943 Rocket 2.6 20:16:25 10° NW 20:21:49 54° WSW 20:22:51 47° SSW
Cosmos 2074 Rocket 4.4 20:17:56 10° NNW 20:24:04 59° W 20:26:45 34° SSW
NOSS 3-4 (A) 4.3 20:18:00 10° NNW 20:24:37 46° NE 20:25:57 42° ENE
NOSS 3-4 (C) 4.3 20:18:06 10° NNW 20:24:43 46° NE 20:26:03 42° ENE
Cosmos 1953 4.3 20:29:29 21° WSW 20:30:56 27° WNW 20:34:21 10° NNW
SPOT 1/Viking Rocket 3.7 20:32:06 64° NNE 20:32:06 64° NNE 20:36:37 10° N
NOSS 3-3 (A) 3.9 20:27:07 10° SW 20:32:58 83° NW 20:39:37 10° NE
Spot 2 Rocket 3.7 20:33:06 68° W 20:33:06 68° W 20:38:09 10° NNW
NOSS 3-3 (C) 3.8 20:27:14 10° SW 20:33:04 84° NW 20:39:43 10° NE
SL-16 R/B 4.4 20:31:00 10° WSW 20:35:33 24° NW 20:40:08 10° N
Terra 3.3 20:49:36 30° NNE 20:49:36 30° NNE 20:52:09 10° N
Cosmos 2341 Rocket 4.0 20:48:00 10° N 20:53:51 76° N 20:53:51 76° N
Cosmos 1603 4.5 20:53:25 23° WSW 20:56:44 49° WNW 21:02:11 10° NNE
ATLAS 2AS CENTAUR R/B 2.8 20:49:58 10° NW 20:57:38 70° NE 20:57:42 70° NE
USA 234 4.2 20:51:42 10° NE 20:57:48 44° NNW 21:03:54 10° W
Aureole 1 Rocket 4.3 21:07:14 81° WSW 21:07:36 84° WNW 21:14:23 10° NNE
COSMOS 2455 3.7 21:06:36 10° NNW 21:11:09 41° NNE 21:11:09 41° NNE
Cosmos 2369 Rocket 4.4 21:36:26 10° WNW 21:39:39 17° W 21:39:39 17° W
CZ-4C R/B 4.5 21:59:17 10° NNW 22:04:42 24° NNE 22:06:33 22° NE
Cosmos 1980 Rocket 4.4 22:48:46 10° N 22:50:54 21° N 22:50:54 21° N
